This demonstration page uses our WeatherBlox Daily Observations layout. Learn more.

Left ArrowRight Arrow

Hourly Observations for March 15, 2017

Temp ( °F °C ) Dew Point ( °F °C ) Humidity (%) Winds ( mph kmh ) Pressure ( in mb ) Visibility ( mi km ) Precip ( " mm )
12:53 am 00:53 Clear 21 -6.1 12 -11.1 68 68 NW 9 15 30.26 1025 10 16.0934 N/A
1:53 am 01:53 Clear 20 -6.7 12 -11.1 71 71 W 5 7 30.26 1025 10 16.0934 N/A
2:53 am 02:53 Clear 19 -7.2 11 -11.7 71 71 W 7 11 30.27 1025 10 16.0934 N/A
3:53 am 03:53 Clear 19 -7.2 11 -11.7 71 71 WNW 8 13 30.26 1025 10 16.0934 N/A
4:53 am 04:53 Clear 19 -7.2 11 -11.7 71 71 W 8 13 30.27 1025 10 16.0934 N/A
5:53 am 05:53 Clear 19 -7.2 9 -12.8 65 65 WNW 8 13 30.28 1026 10 16.0934 N/A
6:53 am 06:53 Mostly Clear 19 -7.2 8 -13.3 62 62 WNW 7 11 30.3 1026 10 16.0934 N/A
7:53 am 07:53 Sunny 19 -7.2 8 -13.3 62 62 WNW 10 17 30.31 1026 10 16.0934 N/A
8:53 am 08:53 Partly Cloudy 22 -5.6 9 -12.8 57 57 WNW 10 17 30.32 1027 10 16.0934 N/A
9:53 am 09:53 Partly Cloudy 25 -3.9 13 -10.6 60 60 WNW 12 19 30.34 1027 10 16.0934 N/A
10:53 am 10:53 Sunny 27 -2.8 11 -11.7 51 51 WNW 14 22 30.34 1028 10 16.0934 N/A
11:53 am 11:53 Mostly Sunny 30 -1.1 11 -11.7 45 45 NW 20 31 30.35 1028 10 16.0934 N/A
12:53 pm 12:53 Mostly Cloudy 31 -0.6 12 -11.1 45 45 NW 17 28 30.36 1028 10 16.0934 N/A
1:53 pm 13:53 Cloudy 31 -0.6 11 -11.7 43 43 NW 14 22 30.35 1028 10 16.0934 N/A
2:53 pm 14:53 Cloudy 32 undefined 14 -10 47 47 NW 18 30 30.33 1027 10 16.0934 N/A
3:53 pm 15:53 Mostly Cloudy 33 0.6 13 -10.6 43 43 WNW 14 22 30.32 1027 10 16.0934 N/A
4:53 pm 16:53 Cloudy 31 -0.6 13 -10.6 47 47 WNW 13 20 30.33 1027 10 16.0934 N/A
5:53 pm 17:53 Cloudy 32 undefined 12 -11.1 43 43 WNW 13 20 30.33 1027 10 16.0934 N/A
6:53 pm 18:53 Cloudy 32 undefined 12 -11.1 43 43 WNW 15 24 30.33 1027 10 16.0934 N/A
7:53 pm 19:53 Mostly Cloudy 30 -1.1 11 -11.7 45 45 NW 10 17 30.34 1028 10 16.0934 N/A
8:53 pm 20:53 Mostly Clear 29 -1.7 13 -10.6 51 51 NW 12 19 30.35 1028 10 16.0934 N/A
9:53 pm 21:53 Clear 26 -3.3 13 -10.6 57 57 WNW 7 11 30.36 1028 10 16.0934 N/A
10:53 pm 22:53 Clear 23 -5 14 -10 68 68 WNW 6 9 30.37 1028 10 16.0934 N/A
11:53 pm 23:53 Clear 23 -5 14 -10 68 68 W 3 6 30.37 1028 10 16.0934 N/A

Powered by AerisWeather